Location: �perlecques
(50.8057°N, 2.1521°E)
Time: 20:59:09
(UTC+00:00)

Tiros 1 - Pass Details

Date: 03 August 2021
Orbit: 630 x 663 km, 48.4° (Epoch: 28 September)

Event Time Altitude Azimuth Distance (km) Brightness Sun altitude
Rises 22:17:57 0° 280° (W) 2,971 11.1 -18.5°
Reaches altitude 10° 22:20:31 10° 270° (W) 2,052 10.0 -18.7°
Maximum altitude 22:24:36 29° 210° (SSW) 1,172 8.1 -19.0°
Enters shadow 22:24:50 29° 204° (SSW) 1,175 8.1 -19.0°
Drops below altitude 10° 22:28:38 10° 150° (SSE) 2,026 - -19.2°
Sets 22:31:10 0° 139° (SE) 2,926 - -19.4°
